Weather in Dubrovka

Russia / Novgorod Oblast     58°37′09″N   31°56′43″E
temp.,
°C
wind,
m/s
gust,
m/s
humid.,
%
clouds,
%
prec.,
mm/h
press.,
hPa
HPBL,
m
6 march, sat
sat600:00−5wnw377881 0.0 1016579
03:00−7nw248776 0.0 1017171
06:00−9w24963 0.0 1016104
09:00−8w25904 0.0 1017240
12:00−4wsw35733 0.0 1016662
15:00−3sw59609 0.0 10131075
18:00−3ssw5125988 0.0 10091171
21:00−4ssw8178994 0.3 10031295
7 march, sun
sun700:00−2sw81593100 1.9 9961249
03:00−1sw71694100 4.2 9921147
06:00−4w1993100 2.0 988757
09:00−5w61270100 3.5 9891564
12:00−5w6106299 0.6 9911635
15:00−4w585699 1.0 9911651
18:00−6wnw1479100 0.4 992426
21:00−9nw398983 0.4 994304
8 march, mon
mon800:00−8nw4118850 0.0 996627
03:00−8nnw5108875 0.1 999767
06:00−9nnw51088100 0.2 1001757
09:00−11n51086100 0.3 1005697
12:00−9n4781100 0.1 1008670
15:00−8n487599 0.1 1011749
18:00−9n388117 0.0 1013611
21:00−13n289525 0.0 1015398
9 march, tue
tue900:00−15nnw269758 0.0 1017216
03:00−16n239847 0.0 1018126
06:00−16n129785 0.0 101973
09:00−16n139145 0.0 1021255
12:00−12n236842 0.0 1021592
15:00−10n225969 0.0 1021760
18:00−12ene2475100 0.0 1021303
21:00−15ene3785100 0.0 1022278
10 march, wed
wed1000:00−17e398796 0.0 1023268
03:00−18e378850 0.0 1024257
06:00−19e25880 0.0 1026195
09:00−18e25780 0.0 1027221
12:00−12ene246640 0.0 1028437
15:00−10ene246356 0.0 1027786
18:00−12e248064 0.0 1027111
21:00−15ese239039 0.0 102779